Regional Weather Roundup
Issued by NWS

Home | Current Version | Previous Version | Text Only | Print | Product List | Glossary On
Versions: 1 2 3 4 5 6 7 8 9 10 11 12 13 14 15 16 17 18 19 20 21 22 23 24 25 26 27 28 29 30 31 32 33 34 35 36 37 38 39 40 41 42 43 44 45 46 47 48 49 50
000
ASUS45 KPSR 210810
RWRAZ

ARIZONA REGIONAL HOURLY WEATHER ROUNDUP
NATIONAL WEATHER SERVICE PHOENIX AZ
100 AM MST TUE OCT 21 2014

NOTE: FAIR INDICATES FEW OR NO CLOUDS BELOW 12,000 FEET WITH NO
SIGNIFICANT WEATHER AND/OR OBSTRUCTIONS TO VISIBILITY.

AZZ001>003-036-210900-
NORTHWEST ARIZONA

CITY           SKY/WX    TMP DP  RH WIND       PRES   REMARKS
BULLHEAD CITY  PTCLDY    73  45  35 SE3       29.82R
KINGMAN        CLEAR     60  43  53 SE13      29.97S
$$

AZZ004>008-015-016-018-210900-
NORTH CENTRAL ARIZONA

CITY           SKY/WX    TMP DP  RH WIND       PRES   REMARKS
GRAND CANYON   MOCLDY    39  32  76 CALM      30.16S
PRESCOTT       CLEAR     48  40  73 S5        30.08S
FLAGSTAFF      MOCLDY    38  35  89 CALM      30.18S
PAYSON         CLEAR     55  43  62 NE3       30.12S
$$

AZZ009>014-017-210900-
NORTHEAST ARIZONA

CITY           SKY/WX    TMP DP  RH WIND       PRES   REMARKS
WINSLOW        CLEAR     53  42  66 E6        30.09R
SAINT JOHNS    CLEAR     47  44  90 E7        30.13S
SHOW LOW       CLEAR     43  36  75 S8        30.17F
$$

AZZ023-210900-
GREATER PHOENIX AREA

CITY           SKY/WX    TMP DP  RH WIND       PRES   REMARKS
PHOENIX        CLEAR     73  53  49 E7        29.85S
BUCKEYE          N/A     64  50  59 CALM      29.86R
LUKE AFB       CLEAR     66  52  60 NE3       29.86R
DEER VALLEY    CLEAR     68  49  50 CALM      29.88R
SCOTTSDALE     CLEAR     72  52  49 CALM      29.89R
MESA-GATEWAY   CLEAR     64  52  63 E7        29.89S
$$

AZZ027-028-210900-
SOUTHWEST MARICOPA COUNTY AND PINAL COUNTY

CITY           SKY/WX    TMP DP  RH WIND       PRES   REMARKS
CASA GRANDE    CLEAR     72  48  43 E6        29.88R
$$

AZZ503-504-507>509-210900-
SOUTHEAST ARIZONA

CITY           SKY/WX    TMP DP  RH WIND       PRES   REMARKS
TUCSON         CLEAR     70  49  47 E10       29.96S
DAVIS-MONTHAN  CLEAR     65  50  57 SE9       29.94S
NOGALES        CLEAR     57  46  66 E3        30.00S
SIERRA VISTA   CLEAR     55  45  67 CALM      30.06S
DOUGLAS        CLEAR     51  46  83 SW5       30.03S
SAFFORD        CLEAR     59  51  75 S6        30.01S
$$

AZZ020-021-025-026-031-210900-
SOUTHWEST ARIZONA

CITY           SKY/WX    TMP DP  RH WIND       PRES   REMARKS
YUMA           CLEAR     77  62  59 CALM      29.80R
$$

CAZ031-033-041-043-047-048-061-210900-
SOUTHERN CALIFORNIA

CITY           SKY/WX    TMP DP  RH WIND       PRES   REMARKS
DOWNTOWN L.A.  CLOUDY    67  62  84 CALM      29.90S
L.A. AIRPORT   MOCLDY    67  64  90 N3        29.91R
SAN DIEGO      MOCLDY    69  61  75 CALM      29.92S
BURBANK        CLEAR     63  59  87 CALM      29.91S
ONTARIO        PTCLDY    61  58  90 W3        29.92S
RIVERSIDE      CLEAR     62  58  86 CALM      29.92S
PALM SPRINGS   CLEAR     75  55  49 CALM      29.82S
EL CENTRO NAS  CLEAR     73  50  44 W6        29.77S
IMPERIAL       CLEAR     74  53  48 NW5       29.77S
BLYTHE         CLEAR     72  47  40 N3        29.80R
NEEDLES        CLEAR     76  44  32 CALM      29.82R
$$

NVZ020-UTZ003-210900-
SOUTHERN NEVADA-UTAH

CITY           SKY/WX    TMP DP  RH WIND       PRES   REMARKS
LAS VEGAS      MOCLDY    75  40  28 S12       29.81S
SALT LAKE CITY MOCLDY    64  40  41 SE13      29.90S
$$

NMZ009-TXZ055-210900-
NEW MEXICO-WEST TEXAS

CITY           SKY/WX    TMP DP  RH WIND       PRES   REMARKS
ALBUQUERQUE    PTCLDY    54  47  77 E10       30.17F
EL PASO        PTCLDY    61  54  77 NE6       30.08R
$$


........................KEY........................
SKY/WX - SKY CONDITION/WEATHER
TMP    - TEMPERATURE IN FAHRENHEIT
DP     - DEW POINT IN FAHRENHEIT
RH     - RELATIVE HUMIDITY IN PERCENT
WIND   - DIRECTION AND SPEED IN MILES PER HOUR (MPH)
VRB    - VARIABLE WIND DIRECTION
PRES   - MEAN SEA LEVEL PRESSURE IN INCHES OF MERCURY
         F - FALLING PRESSURE   R - RISING PRESSURE
         S - STEADY PRESSURE
VSB    - VISIBILITY IN MILES
HX     - HEAT INDEX IN FAHRENHEIT
WCI    - WIND CHILL INDEX IN FAHRENHEIT
TC     - TEMPERATURE IN CELSIUS WHICH IS ALSO KNOWN AS
         TEMPERATURE IN CENTIGRADE
AFB    - AIR FORCE BASE
         LUKE AFB IS LUKE AIR FORCE BASE
         DAVIS-MONTHAN IS DAVIS-MONTHAN AIR FORCE BASE
NAS    - NAVAL AIR STATION
         EL CENTRO NAS IS EL CENTRO NAVAL AIR STATION
N/A    - NOT AVAILABLE


USA.gov is the U.S. government's official web portal to all federal, state and local government web resources and services.